Hourly Weather Ruda

Today, 21 April, Wednesday

Time Temperature Precipitation Wind Pressure Humidity
00:00 +7°C° 0 mm 1 mps 742 mmHg 79%
01:00 +6°C° 0 mm 2 mps 742 mmHg 80%
02:00 +6°C° 0 mm 2 mps 742 mmHg 81%
03:00 +5°C° 0 mm 2 mps 742 mmHg 82%
04:00 +5°C° 0 mm 2 mps 742 mmHg 83%
05:00 +5°C° 0 mm 3 mps 742 mmHg 80%
06:00 +8°C° 0 mm 3 mps 743 mmHg 77%
07:00 +9°C° 0 mm 3 mps 743 mmHg 74%
08:00 +10°C° 0.2 mm 4 mps 743 mmHg 69%
09:00 +12°C° 0.2 mm 4 mps 743 mmHg 65%
10:00 +13°C° 0.2 mm 5 mps 743 mmHg 61%
11:00 +14°C° 0.4 mm 5 mps 742 mmHg 59%
12:00 +14°C° 0.4 mm 5 mps 742 mmHg 58%
13:00 +14°C° 0.4 mm 5 mps 742 mmHg 57%
14:00 +14°C° 0.6 mm 4 mps 742 mmHg 60%
15:00 +14°C° 0.6 mm 4 mps 742 mmHg 62%
16:00 +14°C° 0.6 mm 4 mps 741 mmHg 65%
17:00 +13°C° 0.2 mm 3 mps 742 mmHg 70%
18:00 +11°C° 0.2 mm 3 mps 742 mmHg 75%
19:00 +10°C° 0.2 mm 3 mps 742 mmHg 80%
20:00 +9°C° 0 mm 3 mps 742 mmHg 82%
21:00 +9°C° 0 mm 2 mps 742 mmHg 84%
22:00 +8°C° 0 mm 2 mps 742 mmHg 86%
23:00 +8°C° 0.1 mm 2 mps 742 mmHg 87%

Tomorrow, 22 April, Thursday

Time Temperature Precipitation Wind Pressure Humidity
00:00 +8°C° 0.1 mm 3 mps 742 mmHg 89%
01:00 +7°C° 0.1 mm 3 mps 742 mmHg 90%
02:00 +7°C° 0.1 mm 3 mps 742 mmHg 90%
03:00 +7°C° 0.1 mm 3 mps 742 mmHg 91%
04:00 +7°C° 0.1 mm 2 mps 742 mmHg 91%
05:00 +8°C° 0.1 mm 3 mps 742 mmHg 89%
06:00 +8°C° 0.1 mm 3 mps 743 mmHg 87%
07:00 +9°C° 0.1 mm 3 mps 743 mmHg 85%
08:00 +8°C° 0.8 mm 3 mps 743 mmHg 85%
09:00 +7°C° 0.8 mm 4 mps 744 mmHg 85%
10:00 +7°C° 0.8 mm 4 mps 744 mmHg 85%
11:00 +6°C° 0.2 mm 4 mps 744 mmHg 85%
12:00 +5°C° 0.2 mm 5 mps 745 mmHg 85%
13:00 +5°C° 0.2 mm 5 mps 745 mmHg 84%
14:00 +5°C° 0.1 mm 5 mps 745 mmHg 78%
15:00 +6°C° 0.1 mm 4 mps 745 mmHg 72%
16:00 +6°C° 0.1 mm 4 mps 745 mmHg 67%
17:00 +5°C° 0 mm 4 mps 745 mmHg 71%
18:00 +5°C° 0 mm 4 mps 745 mmHg 74%
19:00 +4°C° 0 mm 3 mps 746 mmHg 78%
20:00 +3°C° 0 mm 3 mps 746 mmHg 80%
21:00 +2°C° 0 mm 3 mps 746 mmHg 82%
22:00 +2°C° 0 mm 3 mps 746 mmHg 83%
23:00 +1°C° 0 mm 3 mps 746 mmHg 84%

Day after tomorrow, 23 April, Friday

Time Temperature Precipitation Wind Pressure Humidity
00:00 +1°C° 0 mm 3 mps 746 mmHg 85%
01:00 0°C° 0 mm 3 mps 746 mmHg 86%
02:00 0°C° 0 mm 3 mps 746 mmHg 87%
03:00 0°C° 0 mm 3 mps 746 mmHg 88%
04:00 0°C° 0 mm 3 mps 746 mmHg 88%
05:00 0°C° 0 mm 4 mps 747 mmHg 83%
06:00 +1°C° 0 mm 4 mps 747 mmHg 78%
07:00 +3°C° 0 mm 4 mps 747 mmHg 72%
08:00 +5°C° 0.1 mm 5 mps 747 mmHg 64%
09:00 +6°C° 0.1 mm 5 mps 747 mmHg 55%
10:00 +7°C° 0.1 mm 6 mps 747 mmHg 47%
11:00 +7°C° 0.2 mm 6 mps 747 mmHg 54%
12:00 +5°C° 0.2 mm 6 mps 747 mmHg 61%
13:00 +5°C° 0.2 mm 7 mps 747 mmHg 69%
14:00 +5°C° 0.4 mm 6 mps 747 mmHg 69%
15:00 +5°C° 0.4 mm 6 mps 747 mmHg 69%
16:00 +4°C° 0.4 mm 6 mps 748 mmHg 69%
17:00 +3°C° 0.1 mm 5 mps 748 mmHg 74%
18:00 +3°C° 0.1 mm 4 mps 748 mmHg 78%
19:00 +2°C° 0.1 mm 3 mps 749 mmHg 83%
20:00 +1°C° 0 mm 3 mps 749 mmHg 85%
21:00 +1°C° 0 mm 3 mps 749 mmHg 87%
22:00 0°C° 0 mm 4 mps 749 mmHg 88%
23:00 -1°C° 0 mm 4 mps 749 mmHg 88%

24 April, Saturday

Time Temperature Precipitation Wind Pressure Humidity
00:00 -1°C° 0 mm 4 mps 749 mmHg 87%
01:00 -1°C° 0 mm 5 mps 749 mmHg 86%
02:00 -2°C° 0 mm 4 mps 749 mmHg 86%
03:00 -2°C° 0 mm 4 mps 750 mmHg 86%
04:00 -3°C° 0 mm 4 mps 750 mmHg 86%
05:00 -2°C° 0 mm 4 mps 750 mmHg 79%
06:00 0°C° 0 mm 5 mps 750 mmHg 71%
07:00 +1°C° 0 mm 6 mps 750 mmHg 64%
08:00 +3°C° 0 mm 6 mps 750 mmHg 56%
09:00 +4°C° 0 mm 6 mps 750 mmHg 48%
10:00 +7°C° 0 mm 6 mps 750 mmHg 41%
11:00 +7°C° 0 mm 6 mps 750 mmHg 41%
12:00 +8°C° 0 mm 6 mps 749 mmHg 40%
13:00 +8°C° 0 mm 6 mps 749 mmHg 40%
14:00 +8°C° 0.1 mm 6 mps 748 mmHg 47%
15:00 +8°C° 0.1 mm 6 mps 748 mmHg 54%
16:00 +7°C° 0.1 mm 6 mps 748 mmHg 61%
17:00 +6°C° 0.2 mm 5 mps 748 mmHg 69%
18:00 +5°C° 0.2 mm 4 mps 748 mmHg 78%
19:00 +3°C° 0.2 mm 3 mps 748 mmHg 86%
20:00 +3°C° 0 mm 3 mps 748 mmHg 88%
21:00 +2°C° 0 mm 3 mps 748 mmHg 89%
22:00 +1°C° 0 mm 3 mps 748 mmHg 91%
23:00 +1°C° 0.2 mm 3 mps 749 mmHg 92%

25 April, Sunday

Time Temperature Precipitation Wind Pressure Humidity
00:00 +1°C° 0.2 mm 3 mps 749 mmHg 94%
01:00 0°C° 0.2 mm 4 mps 749 mmHg 96%
02:00 0°C° 0 mm 3 mps 749 mmHg 95%
03:00 -1°C° 0 mm 3 mps 749 mmHg 94%
04:00 -2°C° 0 mm 3 mps 749 mmHg 93%
05:00 -1°C° 0 mm 3 mps 750 mmHg 86%
06:00 0°C° 0 mm 3 mps 750 mmHg 79%
07:00 0°C° 0 mm 4 mps 750 mmHg 72%
08:00 +3°C° 0 mm 4 mps 750 mmHg 64%
09:00 +3°C° 0 mm 5 mps 750 mmHg 56%
10:00 +5°C° 0 mm 5 mps 750 mmHg 49%
11:00 +6°C° 0.1 mm 5 mps 749 mmHg 48%
12:00 +6°C° 0.1 mm 5 mps 749 mmHg 47%
13:00 +7°C° 0.1 mm 6 mps 749 mmHg 46%
14:00 +7°C° 0.2 mm 6 mps 748 mmHg 50%
15:00 +5°C° 0.2 mm 6 mps 748 mmHg 53%
16:00 +5°C° 0.2 mm 6 mps 748 mmHg 56%
17:00 +5°C° 0.2 mm 5 mps 748 mmHg 63%
18:00 +3°C° 0.2 mm 4 mps 748 mmHg 70%
19:00 +2°C° 0.2 mm 3 mps 748 mmHg 76%
20:00 +2°C° 0.1 mm 3 mps 748 mmHg 78%
21:00 +1°C° 0.1 mm 3 mps 748 mmHg 81%
22:00 0°C° 0.1 mm 4 mps 748 mmHg 83%
23:00 0°C° 0 mm 3 mps 748 mmHg 85%

26 April, Monday

Time Temperature Precipitation Wind Pressure Humidity
00:00 -1°C° 0 mm 3 mps 748 mmHg 87%
01:00 -1°C° 0 mm 3 mps 748 mmHg 89%
02:00 -2°C° 0 mm 3 mps 749 mmHg 89%
03:00 -2°C° 0 mm 2 mps 749 mmHg 89%
04:00 -2°C° 0 mm 2 mps 749 mmHg 89%
05:00 -1°C° 0 mm 3 mps 749 mmHg 82%
06:00 0°C° 0 mm 4 mps 749 mmHg 76%
07:00 +1°C° 0 mm 4 mps 749 mmHg 69%
08:00 +2°C° 0 mm 5 mps 749 mmHg 61%
09:00 +5°C° 0 mm 5 mps 749 mmHg 53%
10:00 +6°C° 0 mm 5 mps 749 mmHg 46%
11:00 +7°C° 0 mm 5 mps 749 mmHg 45%
12:00 +7°C° 0 mm 5 mps 749 mmHg 45%
13:00 +8°C° 0 mm 5 mps 748 mmHg 45%
14:00 +8°C° 0 mm 5 mps 748 mmHg 47%
15:00 +8°C° 0 mm 5 mps 748 mmHg 49%
16:00 +8°C° 0 mm 4 mps 748 mmHg 51%
17:00 +7°C° 0 mm 3 mps 748 mmHg 58%
18:00 +6°C° 0 mm 2 mps 748 mmHg 64%
19:00 +5°C° 0 mm 1 mps 748 mmHg 71%
20:00 +5°C° 0 mm 1 mps 748 mmHg 72%
21:00 +4°C° 0 mm 1 mps 747 mmHg 73%
22:00 +4°C° 0 mm 1 mps 747 mmHg 74%
23:00 +3°C° 0 mm 1 mps 747 mmHg 75%
Show more